SENTINEL-1A

Last updated on Mon Jun 22 2026 00:02:51 GMT+0000 (Coordinated Universal Time)

1 39634U 14016A 26172.48177712 .00000452 00000+0 10548-3 0 9993 2 39634 98.1781 179.9521 0001391 81.1545 278.9812 14.59201426650645
UTC large
Height (km)
Speed (km/s)
/
Latitude / Longitude
Inclination (degrees)
Orbital Period (minutes)
Azimuth
Elevation
Range (km)
Doppler Factor

Next 0 passes for location: London (51.5072 / 0.1276)

No passes found over London.
SENTINEL-1A